STARLINK-32201, 61512

Orbit data source: Space-Track

STARLINK-32201, 61512 is a payload satellite owned by SpaceX/Seattle (US) in LEO that was launched on Tue, 15 Oct 2024 UTC via an FALCON 9 launch vehicle from the Air Force Eastern Test Range (AFETR). Payload-class satellites include a variety of spacecraft equipped with specific instruments for various scientific and technological missions. These include communications satellites like Starlink; space stations such as the ISS; scientific satellites like the Hubble; Earth observation satellites from companies like Planet Labs, Umbra, and HawkEye 360; GPS; miniature CubeSats for education and research; and military/defense satellites.

Loading next visibility...
Identifier
61512, 2024-183D
Orbit
LEO
Country
Flag of USUS
Related business
Manufacturer
SpaceX/Seattle
Mission
Operational Commercial Communications
Bus & Motor
STARLINK V2M, Unknown motor
Mass
730 kg wet, ~700 kg dry
Launch date (UTC)
2024-10-15 (1 year ago)
Launch vehicle
FALCON 9
Launch site
Air Force Eastern Test Range (AFETR)
Object type
Payload
Rocket body
Debris
Shape & HBR
Box + 2 Pan, 17.7 m
Radar Cross Section
33.884 m², Large (>1 m²)

Expand to show TLE details & history
Last TLE update: 15 hours ago

TLE from 15 hours ago
0 STARLINK-32201
1 61512U 24183D   25346.82281747 -.00000385  00000-0 -88787-6 0  9994
2 61512  53.1601 173.0905 0001263 107.9733 252.1406 15.30183425 66532
Epoch: 2025-12-12T19:44Z
TLE epoch observation values (Epoch: 2025-12-12T19:44:51.429Z)
Latitude
0.00002°
Longitude
155.11731°
Altitude
476.43 km
Speed
7.629 km/s
True Right ascension
11h 32m 21s
True Declination
0° 00' 00"
Sunlit
Object was in daylight at epoch
Visualization orbit readout
Latitude
Unknown
Longitude
Unknown
Altitude
Unknown
Speed
Unknown
Apparent Right ascension
Unknown
Apparent Declination
Unknown
Sunlit
N/A
Visualization observer readout
Local Sidereal Time
09:16:23
Azimuth
Unknown
Elevation
Unknown
Doppler factor
Unknown
Orbital elements
Apogee altitude
476.387 km
Perigee altitude
474.655 km
Semi-major axis
6,853.658 km
Eccentricity
0.00013
Inclination
53.1601°
RAAN
173.0905°
Arg. of periapsis
107.9733°
True anomaly
252.12683°
Mean anomaly
252.1406°
Eccentric anomaly
252.13371°
Mean motion
3.82525 °/min
Orbital period
94.11 mins
BSTAR
-8.8787e-7
Loading maneuver chart data...
Computing Atmospheric mass density...
Loading historical data...
Loading historical data...
Loading historical data...
Loading historical data...
Loading historical data...
Loading historical data...
Loading historical data...

Documentation

Showing up to 5 results
|